Wind_Speed
51 51 52 53 54 54 56 57 59 60 61 62 63 65 67 68 70 70 70 70 69 68 68 68 68 68 68 68 68 68 68 68 67 66 66 65 65 64 64 63 63 62 62 63 63 64 64 64 64 63 63 64 64 64 64 64 63 64 64 63 63 62 62
55 55 54 54 55 56 57 58 59 60 60 61 62 63 65 67 68 70 72 72 73 73 72 72 71 71 70 70 70 69 69 69 68 68 67 67 66 65 65 64 64 64 64 64 64 64 64 65 66 65 65 65 65 65 65 64 64 65 64 63 64 64 64
57 57 58 58 59 60 61 61 61 62 62 63 63 64 64 65 67 68 70 71 72 73 74 75 75 75 74 74 73 73 72 72 71 71 71 70 69 68 67 66 65 65 65 64 65 65 65 66 67 67 66 65 65 65 65 65 65 66 65 64 65 64 64
59 60 60 61 62 63 63 63 64 64 65 65 65 65 65 66 66 67 68 69 69 70 71 73 74 75 76 77 77 77 77 76 76 75 75 74 73 72 71 70 69 69 67 66 66 66 66 67 68 67 65 65 65 65 65 65 65 66 66 66 66 65 64
60 60 60 61 61 62 63 64 64 65 66 66 67 67 67 67 66 67 68 68 68 68 68 68 69 71 72 74 76 78 79 79 80 79 79 78 78 77 77 76 75 74 73 72 71 70 70 70 70 69 67 67 66 66 66 66 65 66 67 67 66 66 65
58 59 60 60 61 62 62 63 64 65 66 67 67 68 67 68 68 68 69 70 70 70 70 69 69 69 70 71 72 74 75 77 78 79 80 80 80 80 81 80 80 79 78 78 76 75 75 75 75 74 73 72 71 70 71 70 69 69 70 69 67 66 66
57 57 57 58 59 59 60 61 62 63 64 65 66 66 67 68 68 69 71 72 73 73 73 72 72 72 72 72 72 73 73 74 74 75 76 77 78 79 80 81 81 82 82 82 81 81 81 80 80 80 79 78 77 76 76 75 73 72 73 72 70 69 69
50 50 50 50 51 52 52 53 54 56 57 59 60 61 62 63 64 65 67 69 71 72 71 71 71 71 72 73 73 74 74 75 75 75 75 75 75 76 77 78 79 80 81 81 81 82 82 82 81 81 81 80 79 78 78 77 76 75 76 75 74 73 73
41 41 40 41 42 43 45 46 47 49 50 52 52 53 54 55 55 57 59 62 65 66 66 65 65 66 67 69 71 72 72 73 74 75 75 76 76 77 77 78 78 79 80 80 80 80 80 80 81 81 80 80 79 79 78 78 77 77 77 77 77 76 76
32 33 33 34 35 37 38 40 42 44 46 46 47 47 47 47 48 49 52 56 59 59 59 59 59 60 61 63 64 65 66 67 68 69 71 72 73 75 76 77 78 79 80 81 81 81 81 81 81 81 81 80 80 80 79 79 79 79 79 79 79 79 79
28 29 31 31 32 34 35 37 38 40 42 43 43 43 43 43 43 44 46 51 53 53 52 52 53 54 56 56 58 58 59 60 61 62 63 64 66 67 69 71 73 74 76 77 79 80 81 82 82 82 82 82 81 81 81 80 80 81 81 81 81 81 81
28 29 30 31 32 33 34 35 36 37 38 39 40 40 40 40 40 41 44 47 50 49 47 46 46 48 49 50 51 52 53 54 55 55 57 58 59 60 62 63 65 66 68 70 71 73 75 76 78 79 79 80 80 80 79 79 79 79 80 80 81 81 81
29 30 31 33 33 33 34 35 35 36 35 35 36 36 37 37 38 39 41 45 47 45 43 42 42 42 43 43 44 45 47 48 48 49 50 51 53 54 55 57 58 59 61 62 64 65 67 68 70 71 72 73 73 74 74 74 74 74 75 76 76 77 77
29 30 32 34 35 34 34 35 35 34 33 33 33 33 34 34 35 36 39 42 43 41 39 38 37 37 38 38 39 40 41 42 43 43 45 46 47 49 50 52 53 54 56 57 58 60 61 62 62 63 64 65 66 66 66 67 67 67 68 68 69 70 70
29 30 33 34 36 36 35 35 34 33 32 31 30 30 31 32 33 35 37 39 38 36 35 34 33 33 34 34 35 35 36 37 37 38 39 40 42 43 45 47 48 50 51 52 53 54 55 55 56 56 56 57 57 57 58 58 58 59 59 60 60 61 62
30 31 32 34 36 37 36 36 34 32 30 29 28 29 29 30 31 33 34 34 33 32 31 30 30 30 30 30 31 31 31 32 32 32 33 34 35 36 38 39 41 42 43 44 45 46 46 46 47 47 47 47 47 48 48 49 49 50 50 51 51 52 53
31 31 32 34 35 36 36 36 34 31 29 27 27 27 28 28 29 30 31 30 29 29 29 28 27 27 27 27 27 27 27 27 27 27 27 27 28 29 30 31 32 33 34 34 35 35 35 36 36 37 37 38 38 38 39 40 40 41 41 42 43 44 45
31 32 32 33 35 36 36 35 33 30 28 26 26 26 26 26 27 28 28 28 27 27 27 26 25 24 24 24 24 24 23 23 22 21 21 21 21 21 21 22 22 22 23 23 24 25 26 27 28 29 30 30 31 32 32 33 33 34 35 35 36 37 39
31 32 32 33 35 37 37 35 32 29 27 25 24 24 24 24 25 26 26 26 26 26 25 24 23 22 22 21 21 20 19 18 17 16 15 15 14 14 14 14 15 15 16 17 18 20 21 22 23 24 25 26 27 28 29 29 30 30 31 31 32 33 34
30 31 31 32 35 37 36 34 30 28 26 24 23 22 21 22 23 24 24 24 25 24 24 23 21 20 20 19 18 17 15 14 13 12 12 12 11 11 11 12 13 13 14 15 17 18 19 20 22 23 24 25 26 27 27 28 28 29 29 29 30 30 31
29 30 30 31 34 36 35 32 29 27 25 23 22 20 19 20 21 22 23 23 24 23 22 20 19 18 17 16 15 14 13 12 12 11 11 11 11 11 11 12 12 13 14 15 16 18 19 21 22 23 25 25 26 27 27 27 27 27 27 27 28 28 29
28 29 28 29 32 34 33 31 28 26 24 22 21 19 18 18 19 20 21 22 22 21 20 18 16 15 15 14 12 11 10 10 10 10 10 10 10 10 10 11 12 13 14 15 17 18 20 21 22 23 24 24 25 25 26 26 26 26 25 25 26 26 27
27 27 27 27 30 33 32 29 27 25 23 21 19 18 17 16 17 18 19 20 20 19 18 16 14 13 13 12 11 10 9 9 9 9 9 10 10 10 11 12 13 14 15 16 17 18 18 19 19 20 21 21 22 22 23 23 24 24 24 25 25 25 26
26 26 25 26 28 30 29 28 26 24 22 20 18 17 16 15 16 16 17 17 18 17 16 14 13 13 13 12 11 11 10 10 10 10 11 11 11 12 12 13 13 13 14 14 14 14 15 15 16 16 17 18 18 19 19 20 21 21 22 23 23 24 25
25 24 24 24 26 28 27 26 25 24 21 19 17 16 15 14 14 15 16 16 16 15 14 13 12 12 13 13 13 12 11 11 11 11 11 11 11 11 11 10 10 10 10 11 11 12 12 12 13 13 13 14 14 15 15 16 17 17 18 19 20 21 22
24 23 23 23 24 26 26 24 24 23 20 18 16 15 13 13 13 14 14 14 14 13 13 12 12 12 13 13 13 12 11 10 9 9 9 8 8 8 8 7 8 8 8 9 9 9 9 9 9 9 10 10 11 11 12 12 13 14 14 15 16 16 17
22 22 22 22 22 24 24 23 23 23 21 18 16 14 13 12 11 12 12 12 11 11 10 10 11 11 11 11 10 9 8 7 6 5 5 5 5 6 6 6 5 5 5 5 5 6 6 7 7 8 8 9 10 11 11 12 13 13 14 14 15 15 16
21 21 21 20 20 21 22 22 22 23 21 19 16 14 12 11 11 10 10 10 9 8 7 7 8 8 8 7 6 5 4 3 3 3 4 4 4 4 3 3 3 3 3 4 5 6 6 7 8 8 9 10 10 11 11 12 12 13 13 14 15 15 16
20 20 20 20 19 19 19 20 21 22 22 19 17 14 12 11 11 10 9 8 7 6 6 5 5 5 5 4 3 2 1 1 2 2 2 2 2 1 1 1 2 4 5 6 6 7 8 9 9 10 11 11 11 12 12 12 12 13 13 13 13 14 14
19 19 19 19 18 17 17 18 18 20 21 20 18 15 13 12 11 10 10 8 7 6 5 4 4 3 3 2 1 1 1 1 1 0 1 1 1 1 2 4 5 6 7 7 8 9 9 10 11 12 12 13 13 13 13 13 14 14 14 14 14 14 14
17 18 18 18 17 16 16 16 16 17 19 20 19 16 14 13 11 10 9 8 7 6 6 5 4 3 2 2 2 2 2 1 1 1 2 2 2 3 5 5 6 6 7 8 8 9 11 11 12 13 13 14 14 15 15 15 15 15 15 15 15 15 15
16 16 17 17 16 16 15 15 15 15 16 18 19 18 16 14 13 11 10 9 8 8 7 5 4 3 3 3 4 3 2 2 2 2 2 3 4 4 5 5 6 6 7 9 10 12 13 14 15 15 16 17 17 17 17 17 17 17 17 17 16 16 16
15 15 15 15 16 15 15 14 14 14 14 15 16 17 17 15 14 13 12 11 11 10 8 6 5 5 6 6 4 2 2 2 2 2 3 3 4 4 5 6 7 8 10 12 13 14 16 17 18 19 20 21 21 20 20 19 19 19 20 20 20 20 19
13 14 15 14 15 15 15 15 14 13 13 13 14 14 15 15 15 14 13 13 13 11 10 9 9 9 8 6 3 2 1 1 2 3 3 4 5 6 7 8 9 11 12 13 15 16 18 19 20 21 23 24 24 24 22 21 21 21 21 22 22 22 22
13 13 13 13 14 15 15 14 13 13 12 12 13 13 13 14 14 14 14 13 13 12 12 12 11 10 8 6 5 4 4 4 4 5 5 6 7 8 9 10 11 12 13 15 16 17 18 19 21 23 25 26 27 26 25 24 23 22 23 23 23 23 22
14 14 13 13 13 14 14 13 13 12 12 12 12 12 12 12 13 13 13 12 12 12 12 13 12 11 10 8 7 7 6 6 6 7 7 8 8 9 9 10 11 12 14 15 16 17 18 20 21 23 25 27 27 27 26 25 24 23 23 23 23 23 23
14 14 14 13 13 13 13 13 13 13 12 11 11 12 12 12 12 12 12 11 11 10 10 11 10 10 9 9 9 8 8 8 8 8 8 8 8 8 9 10 11 12 13 14 15 17 18 19 21 23 25 27 27 26 25 25 24 24 24 24 24 24 25
Wind_Direction
267 266 263 260 258 259 260 260 259 259 258 257 256 256 256 256 256 256 255 255 255 255 256 256 257 257 258 258 258 259 259 259 259 259 259 259 258 258 257 256 255 254 253 252 252 252 253 254 253 253 254 255 256 257 258 259 259 260 260 260 260 259 259
267 267 266 263 262 263 264 265 264 263 262 261 260 259 258 257 256 256 256 256 255 255 255 255 256 257 257 258 259 260 260 261 261 261 261 260 260 259 258 257 256 255 254 254 254 253 254 254 254 254 254 255 256 257 258 259 259 259 259 259 259 258 256
267 267 267 266 265 266 266 267 266 265 264 264 264 263 262 261 260 258 258 257 256 256 256 256 256 256 257 258 258 259 260 260 261 262 262 262 261 261 260 259 258 257 256 255 255 255 255 255 255 255 255 255 255 256 257 257 258 258 258 257 256 255 254
269 269 269 268 268 267 267 267 267 266 266 265 265 265 265 264 263 262 261 260 259 258 258 258 258 258 258 258 258 259 259 259 259 260 261 261 262 262 262 262 261 260 259 258 258 257 257 257 257 256 256 256 255 256 256 256 256 257 256 256 255 254 252
270 270 270 269 269 268 268 268 267 267 267 266 266 266 266 266 265 264 264 263 263 262 261 261 260 260 260 259 259 259 259 259 259 259 259 259 260 261 261 262 262 262 262 261 261 261 261 260 260 260 259 258 258 258 257 257 258 258 257 255 254 253 252
270 270 270 270 269 269 268 268 268 267 267 266 266 266 266 266 266 265 265 265 264 264 264 264 264 263 262 262 261 260 260 260 260 260 260 259 260 260 260 261 262 262 262 262 262 262 262 262 263 263 263 262 262 262 262 261 261 261 260 258 256 255 254
271 271 271 271 271 270 269 269 268 268 267 267 266 266 266 266 266 265 265 265 265 265 265 265 265 264 264 263 262 262 261 261 260 260 260 260 260 260 261 261 261 262 262 262 262 262 262 263 263 264 264 264 264 264 264 264 263 263 263 262 261 259 259
273 273 273 273 273 272 272 271 270 269 268 267 267 266 266 266 266 266 265 265 265 265 264 264 264 264 264 263 263 262 262 262 262 261 261 261 261 261 261 261 261 261 262 262 262 262 263 263 264 264 264 264 264 264 264 264 264 264 264 264 263 262 262
277 277 276 277 277 276 275 274 272 271 270 269 268 267 267 266 266 265 265 265 265 265 264 264 263 263 263 262 262 262 262 262 262 262 262 262 262 262 261 261 261 261 262 262 262 263 263 263 263 264 264 263 264 263 263 264 264 264 264 264 263 263 262
282 283 284 284 285 285 283 281 278 275 273 271 270 269 269 268 268 267 267 267 266 266 265 265 264 263 262 261 262 262 262 262 262 262 262 262 262 262 262 262 262 261 261 262 262 262 263 263 263 263 263 264 264 264 264 264 264 264 264 264 264 263 263
290 292 293 293 293 293 291 288 285 281 277 275 274 273 272 272 271 270 270 270 269 269 268 267 266 264 263 262 262 262 262 261 261 261 261 261 261 261 262 262 262 262 262 262 262 262 263 263 263 264 264 264 265 265 265 265 264 264 265 265 264 264 264
295 297 298 298 298 298 297 294 290 286 282 278 276 274 273 273 272 271 271 271 271 272 272 271 270 268 266 264 263 263 262 262 261 261 261 261 261 261 260 260 261 261 261 262 262 262 263 263 264 264 265 265 266 266 265 265 265 265 265 265 265 265 265
298 299 300 301 302 302 302 300 296 291 286 282 277 275 274 273 272 271 270 270 272 274 275 274 273 271 270 268 267 266 265 264 264 263 263 262 262 261 261 261 260 260 260 261 261 262 263 263 264 265 266 266 267 267 267 267 266 266 266 266 266 266 266
299 302 304 305 306 307 308 305 301 296 291 286 280 277 276 274 273 271 269 269 272 275 276 276 275 274 273 272 270 269 268 267 266 265 265 264 263 262 262 261 261 261 261 261 261 262 263 264 265 266 267 268 269 269 269 268 268 267 267 266 266 266 266
299 303 306 308 310 311 311 310 305 300 294 288 283 280 277 276 273 271 269 270 273 275 276 277 277 277 276 275 274 273 272 270 269 268 267 265 264 263 263 262 262 262 262 263 263 264 265 266 267 267 268 268 269 269 269 269 268 268 267 267 266 266 266
299 303 307 309 312 314 314 313 308 303 297 291 286 282 279 277 274 271 271 272 274 275 277 278 279 279 279 279 279 279 278 277 276 274 272 270 268 267 265 264 264 263 264 264 265 265 266 267 267 267 267 267 267 267 267 268 268 267 267 267 266 266 266
298 303 307 311 314 316 316 315 311 306 300 294 289 285 282 279 275 272 272 273 274 276 278 280 282 283 284 285 286 286 285 285 283 282 279 276 273 270 268 266 265 265 265 265 265 266 266 266 266 266 266 267 267 268 268 268 269 268 268 268 267 267 267
298 303 308 312 316 318 319 317 313 308 303 297 292 288 285 281 276 273 272 272 274 276 279 283 285 287 289 291 292 292 290 288 286 284 282 278 275 272 270 269 268 268 268 267 267 267 267 268 269 269 270 270 271 271 271 272 271 271 270 270 268 268 267
297 303 309 315 319 321 320 318 314 310 305 300 296 292 288 283 277 274 273 273 274 277 281 285 288 292 295 296 296 294 291 288 286 286 284 282 280 278 277 276 276 275 275 274 274 273 273 274 274 274 274 274 274 275 276 276 277 276 275 273 271 269 268
297 303 310 318 322 322 321 319 317 313 308 304 300 296 292 286 280 275 273 273 275 277 281 285 290 295 299 300 299 297 294 292 291 291 290 289 289 286 286 285 283 283 282 280 280 279 278 277 277 276 276 276 277 277 277 279 280 280 280 278 275 272 271
297 302 310 319 323 323 322 321 319 316 311 307 303 300 295 289 283 278 275 274 275 278 282 285 291 297 300 301 300 298 297 297 297 296 295 294 293 291 290 288 286 285 283 282 280 279 278 277 277 277 277 277 277 276 276 276 277 280 282 281 279 277 275
297 302 310 319 324 324 324 324 323 319 315 311 307 303 298 291 285 280 276 275 276 278 281 283 288 294 298 299 299 299 299 300 300 299 298 297 295 292 290 287 284 283 281 279 279 278 278 278 278 278 278 278 278 277 277 277 277 279 281 281 281 280 279
297 302 309 320 326 326 326 328 327 323 318 314 311 306 299 292 287 282 277 276 276 277 278 279 281 287 290 290 291 291 292 294 296 297 296 294 292 289 286 284 281 280 279 279 279 280 281 282 283 284 285 285 285 285 284 284 283 282 283 282 282 282 281
297 302 310 320 327 328 329 332 332 328 322 318 314 309 303 294 287 283 278 276 275 275 275 273 274 279 280 280 280 280 282 286 288 291 291 290 288 286 284 282 281 282 283 286 288 291 292 293 293 294 294 294 295 294 293 293 292 291 289 288 287 286 284
297 302 309 320 328 329 332 337 337 333 327 322 318 313 308 300 292 285 281 278 276 273 271 268 267 268 271 272 275 277 281 285 287 289 289 287 285 284 284 286 289 292 297 298 299 299 299 299 299 300 300 300 301 300 299 298 297 296 294 292 291 289 288
297 303 309 319 327 331 335 341 343 340 334 328 323 319 315 307 299 291 286 283 279 274 269 264 261 262 265 268 272 276 280 284 287 288 288 287 289 291 296 300 302 303 302 301 302 303 305 308 310 310 312 312 312 313 311 311 309 306 304 302 299 297 294
298 303 308 316 325 331 337 345 349 347 343 337 331 327 324 318 311 304 297 292 287 281 274 268 264 264 266 269 272 274 277 280 285 289 296 301 305 308 309 308 305 304 306 312 321 328 332 335 335 335 337 336 335 334 331 329 327 324 322 319 316 314 310
299 303 307 314 322 329 338 348 355 354 351 347 341 337 334 330 325 319 310 305 300 294 289 283 277 273 272 271 270 269 272 286 301 316 317 316 315 310 307 306 314 335 354 1 6 4 2 0 359 356 354 351 348 346 343 340 336 333 331 328 325 322 319
301 304 306 312 319 326 335 347 358 0 358 355 352 348 344 341 339 333 326 321 316 314 313 306 295 286 279 271 266 267 299 329 334 332 319 304 290 283 306 25 34 37 36 30 25 19 14 11 7 5 2 358 356 353 350 347 344 341 337 332 327 323 319
300 302 305 309 316 323 332 343 356 3 4 2 0 358 356 355 353 348 342 338 338 338 339 331 319 305 289 280 289 346 13 8 355 309 218 203 168 88 63 53 46 42 37 30 24 19 15 12 8 5 3 359 356 354 353 351 349 346 341 336 331 326 322
296 299 302 306 311 318 327 337 349 1 6 7 6 5 6 9 10 6 0 357 357 359 359 353 340 321 308 327 24 38 42 73 143 169 166 143 92 70 58 51 44 38 31 24 19 15 11 8 5 1 358 354 352 350 349 348 347 345 340 336 331 327 325
293 295 298 302 305 312 322 331 341 352 2 9 11 11 13 16 19 21 20 20 21 21 18 8 355 350 18 45 55 63 89 136 155 149 121 94 80 68 59 50 40 31 24 20 18 15 11 8 5 1 357 353 350 347 346 345 344 342 338 334 331 328 326
292 291 293 296 299 306 313 321 331 342 352 4 11 14 17 20 24 28 31 33 35 35 34 31 31 42 51 57 64 83 120 136 123 104 92 81 73 65 57 48 38 31 27 23 19 15 12 8 4 0 357 354 351 348 346 345 343 340 337 335 334 333 332
302 295 292 293 296 300 304 310 319 330 341 353 4 12 17 22 26 30 34 39 43 44 45 45 46 48 53 57 59 63 63 63 66 70 68 64 60 55 49 41 33 27 23 18 14 11 7 4 359 356 354 353 351 349 347 346 343 341 339 338 338 337 336
323 313 305 299 296 297 299 303 309 319 329 340 351 1 11 17 23 28 33 38 44 49 51 50 50 50 51 47 42 34 34 41 47 50 52 50 45 42 36 30 24 20 17 13 10 7 3 359 355 352 350 349 349 347 346 346 346 345 343 343 342 341 340
334 330 325 319 311 305 302 301 303 309 318 330 340 348 356 4 12 18 24 29 36 44 51 53 53 52 50 45 40 36 35 35 36 36 35 34 31 29 25 22 19 15 12 9 5 1 358 355 351 347 346 346 346 345 344 345 347 348 347 347 346 345 344
341 337 335 332 328 323 317 312 309 307 310 317 327 335 342 347 352 359 5 10 17 28 40 48 50 50 46 40 34 29 24 22 20 19 18 16 15 16 14 13 9 5 1 358 355 354 352 348 344 341 342 344 344 343 343 345 348 349 349 350 350 350 349
Height
10654 10654 10654 10654 10653 10652 10652 10652 10651 10651 10651 10650 10650 10649 10649 10649 10648 10648 10648 10648 10648 10648 10649 10649 10649 10650 10651 10652 10653 10654 10655 10656 10657 10659 10660 10662 10663 10664 10666 10667 10669 10671 10672 10673 10673 10674 10674 10674 10675 10676 10676 10675 10676 10678 10678 10678 10679 10679 10680 10682 10683 10683 10682
10648 10648 10647 10647 10647 10646 10645 10645 10644 10644 10643 10642 10642 10641 10641 10640 10640 10640 10639 10639 10640 10640 10640 10640 10641 10642 10643 10644 10645 10646 10647 10648 10649 10650 10651 10652 10653 10655 10657 10659 10660 10662 10663 10664 10665 10667 10667 10666 10667 10668 10669 10669 10670 10671 10671 10672 10672 10672 10674 10676 10675 10675 10674
10642 10641 10641 10640 10640 10639 10638 10637 10637 10636 10635 10634 10633 10632 10632 10631 10631 10631 10630 10630 10631 10631 10631 10632 10633 10633 10634 10636 10637 10638 10638 10639 10640 10641 10641 10642 10643 10645 10647 10649 10651 10652 10654 10655 10657 10658 10659 10658 10658 10660 10661 10662 10663 10664 10664 10665 10665 10665 10666 10667 10665 10665 10665
10635 10634 10633 10633 10632 10631 10630 10629 10628 10627 10626 10625 10624 10623 10623 10623 10622 10622 10621 10621 10622 10622 10622 10623 10624 10625 10626 10627 10628 10629 10629 10630 10630 10631 10632 10633 10634 10635 10636 10638 10640 10641 10643 10646 10647 10648 10649 10650 10650 10651 10653 10654 10656 10656 10656 10657 10658 10657 10657 10657 10656 10657 10658
10628 10626 10626 10625 10624 10623 10622 10621 10620 10619 10617 10616 10615 10615 10614 10614 10614 10613 10612 10611 10612 10613 10613 10614 10615 10616 10617 10617 10618 10619 10619 10620 10620 10621 10622 10623 10624 10625 10626 10628 10629 10631 10633 10635 10636 10638 10639 10640 10640 10642 10644 10645 10647 10648 10648 10649 10650 10648 10647 10647 10648 10650 10650
10620 10619 10618 10617 10616 10615 10614 10613 10612 10610 10609 10608 10607 10606 10606 10606 10605 10604 10603 10602 10602 10603 10603 10605 10606 10607 10607 10607 10608 10608 10609 10609 10610 10610 10612 10613 10615 10615 10616 10617 10619 10620 10622 10624 10626 10627 10628 10629 10630 10632 10633 10635 10637 10638 10638 10639 10640 10638 10637 10638 10640 10641 10642
10613 10612 10611 10610 10608 10607 10606 10605 10604 10602 10600 10599 10598 10598 10598 10597 10597 10596 10594 10592 10592 10593 10594 10595 10596 10597 10597 10597 10597 10598 10598 10598 10599 10600 10601 10603 10604 10605 10606 10607 10609 10610 10611 10612 10614 10616 10618 10619 10620 10621 10623 10625 10627 10628 10627 10628 10629 10629 10628 10629 10630 10632 10632
10606 10606 10605 10603 10601 10600 10599 10597 10596 10594 10592 10590 10590 10590 10589 10589 10588 10587 10585 10582 10581 10583 10584 10585 10586 10586 10586 10586 10586 10587 10587 10588 10589 10590 10592 10593 10594 10595 10596 10597 10598 10599 10600 10601 10603 10604 10606 10608 10609 10610 10612 10613 10615 10617 10617 10618 10619 10619 10619 10619 10620 10621 10622
10601 10600 10599 10597 10595 10594 10592 10590 10588 10586 10584 10583 10583 10582 10581 10581 10581 10579 10576 10573 10572 10573 10574 10576 10577 10577 10576 10576 10576 10577 10578 10579 10580 10581 10582 10583 10584 10585 10586 10587 10588 10589 10590 10591 10592 10594 10595 10597 10598 10599 10600 10601 10603 10605 10606 10607 10608 10608 10608 10609 10610 10611 10612
10597 10595 10594 10592 10590 10588 10586 10584 10581 10579 10577 10576 10576 10575 10574 10574 10573 10572 10569 10565 10563 10564 10566 10567 10568 10567 10567 10567 10567 10568 10569 10570 10570 10571 10572 10573 10574 10575 10576 10577 10578 10579 10580 10581 10582 10583 10584 10586 10586 10587 10588 10590 10591 10593 10595 10597 10597 10597 10597 10598 10599 10599 10600
10593 10591 10589 10587 10585 10583 10580 10578 10575 10572 10570 10569 10569 10568 10567 10567 10566 10564 10562 10558 10556 10557 10558 10560 10560 10559 10559 10560 10560 10561 10561 10562 10562 10563 10564 10565 10565 10566 10566 10567 10568 10569 10570 10571 10572 10573 10574 10575 10576 10577 10578 10579 10581 10582 10584 10586 10587 10586 10586 10587 10587 10588 10589
10589 10587 10585 10583 10580 10578 10575 10573 10570 10567 10565 10564 10563 10562 10561 10560 10560 10558 10555 10551 10549 10551 10552 10552 10552 10551 10551 10553 10553 10553 10554 10554 10555 10555 10556 10557 10557 10558 10558 10558 10559 10560 10561 10562 10563 10564 10565 10565 10566 10567 10568 10569 10570 10571 10573 10575 10576 10576 10576 10576 10576 10577 10578
10586 10584 10581 10578 10576 10574 10571 10568 10565 10562 10560 10558 10557 10556 10555 10555 10554 10552 10549 10546 10545 10545 10546 10546 10545 10545 10545 10546 10546 10546 10547 10547 10548 10548 10549 10549 10549 10550 10550 10551 10551 10552 10553 10554 10555 10555 10556 10557 10558 10559 10559 10560 10560 10561 10562 10564 10565 10566 10566 10566 10566 10566 10567
10583 10580 10577 10574 10572 10569 10566 10563 10560 10557 10555 10553 10552 10551 10550 10549 10547 10546 10543 10541 10541 10541 10541 10540 10540 10539 10539 10539 10540 10540 10540 10541 10541 10542 10542 10542 10542 10542 10542 10543 10543 10544 10545 10546 10547 10548 10549 10550 10551 10551 10552 10552 10552 10552 10552 10553 10554 10555 10556 10556 10556 10556 10556
10580 10577 10574 10571 10568 10565 10562 10559 10555 10553 10550 10548 10547 10546 10544 10543 10542 10540 10538 10537 10537 10537 10536 10536 10535 10535 10534 10534 10534 10534 10535 10535 10535 10535 10535 10536 10536 10536 10536 10536 10537 10538 10539 10540 10541 10542 10543 10544 10544 10544 10545 10544 10544 10544 10544 10544 10545 10546 10547 10547 10547 10547 10547
10577 10575 10572 10568 10565 10561 10558 10554 10551 10548 10546 10544 10542 10541 10539 10538 10536 10534 10533 10533 10533 10532 10532 10532 10532 10531 10531 10530 10530 10530 10529 10530 10530 10530 10530 10530 10530 10530 10530 10531 10531 10532 10533 10534 10535 10536 10537 10537 10537 10537 10537 10537 10537 10537 10537 10537 10538 10538 10539 10539 10539 10539 10539
10574 10572 10569 10565 10562 10558 10554 10551 10547 10544 10542 10540 10538 10536 10535 10533 10532 10530 10529 10529 10529 10529 10528 10528 10528 10528 10527 10527 10526 10526 10525 10525 10525 10525 10525 10525 10525 10525 10525 10526 10527 10527 10528 10529 10530 10530 10531 10531 10531 10531 10531 10531 10531 10531 10531 10531 10531 10532 10532 10532 10532 10532 10532
10571 10569 10566 10563 10559 10555 10551 10547 10544 10541 10538 10536 10534 10532 10530 10529 10528 10526 10526 10526 10525 10525 10525 10525 10525 10525 10524 10524 10523 10522 10522 10522 10521 10521 10521 10521 10521 10521 10522 10522 10523 10523 10524 10525 10525 10525 10526 10526 10526 10526 10526 10526 10526 10526 10525 10526 10526 10526 10526 10526 10526 10526 10526
10569 10566 10563 10559 10556 10552 10548 10544 10541 10537 10535 10532 10530 10529 10527 10526 10524 10523 10523 10523 10522 10522 10522 10522 10522 10522 10521 10521 10520 10520 10519 10519 10518 10518 10518 10518 10518 10518 10519 10519 10519 10520 10520 10521 10521 10521 10521 10521 10521 10521 10521 10521 10521 10521 10521 10521 10521 10521 10520 10520 10520 10520 10519
10566 10563 10560 10557 10553 10549 10545 10542 10538 10535 10532 10529 10527 10525 10524 10522 10521 10520 10520 10520 10520 10519 10519 10519 10519 10519 10518 10518 10517 10517 10516 10516 10516 10516 10516 10516 10516 10516 10516 10517 10517 10517 10518 10518 10518 10518 10518 10518 10518 10517 10517 10517 10517 10517 10517 10517 10516 10516 10515 10515 10515 10514 10514
10563 10560 10558 10555 10551 10547 10543 10539 10535 10532 10529 10527 10524 10523 10521 10520 10519 10518 10518 10517 10517 10517 10517 10517 10517 10517 10516 10516 10515 10515 10514 10514 10514 10514 10514 10514 10514 10514 10514 10515 10515 10515 10515 10515 10515 10515 10515 10515 10514 10514 10514 10514 10513 10513 10513 10513 10512 10512 10511 10511 10510 10510 10509
10560 10558 10555 10552 10549 10545 10541 10537 10533 10529 10527 10524 10522 10520 10519 10518 10516 10516 10515 10515 10515 10515 10515 10515 10515 10515 10514 10514 10513 10513 10513 10512 10512 10512 10513 10513 10513 10513 10513 10513 10513 10513 10513 10513 10513 10513 10512 10512 10512 10511 10511 10510 10510 10510 10509 10509 10509 10508 10508 10507 10506 10506 10505
10558 10555 10553 10550 10547 10543 10539 10535 10531 10527 10524 10522 10520 10518 10517 10516 10514 10514 10513 10513 10513 10513 10513 10513 10513 10513 10513 10512 10512 10512 10512 10511 10511 10511 10512 10512 10512 10512 10512 10512 10512 10511 10511 10511 10511 10510 10510 10509 10509 10508 10508 10507 10507 10506 10506 10506 10505 10505 10504 10504 10503 10502 10502
10555 10553 10550 10548 10545 10541 10537 10533 10529 10526 10523 10520 10518 10516 10515 10514 10513 10512 10511 10511 10511 10511 10511 10511 10511 10511 10511 10511 10511 10510 10510 10510 10510 10510 10510 10510 10510 10510 10510 10510 10510 10509 10509 10509 10508 10508 10508 10507 10507 10506 10506 10505 10505 10504 10504 10503 10503 10502 10502 10501 10500 10499 10498
10552 10550 10548 10546 10543 10540 10536 10532 10528 10524 10521 10519 10517 10515 10513 10512 10511 10510 10509 10509 10509 10509 10509 10509 10509 10509 10509 10509 10509 10509 10509 10509 10509 10509 10509 10509 10509 10508 10508 10508 10508 10508 10507 10507 10507 10507 10507 10506 10506 10505 10505 10504 10503 10503 10502 10502 10501 10500 10500 10499 10498 10497 10496
10549 10547 10546 10544 10542 10539 10535 10531 10527 10523 10520 10518 10516 10514 10512 10511 10510 10509 10508 10508 10508 10508 10508 10507 10507 10507 10507 10507 10507 10507 10507 10507 10507 10507 10507 10507 10507 10507 10507 10507 10507 10507 10507 10507 10506 10506 10506 10505 10505 10504 10504 10503 10502 10502 10501 10500 10500 10499 10498 10497 10496 10496 10495
10547 10545 10543 10542 10540 10537 10534 10530 10526 10523 10520 10517 10515 10513 10511 10510 10509 10508 10507 10507 10507 10506 10506 10506 10506 10506 10506 10506 10506 10506 10506 10506 10506 10506 10506 10506 10506 10506 10506 10506 10506 10506 10506 10506 10506 10505 10505 10504 10504 10503 10503 10502 10501 10500 10500 10499 10498 10497 10496 10496 10495 10494 10493
10544 10543 10542 10540 10538 10536 10533 10530 10526 10523 10520 10517 10514 10512 10511 10509 10508 10507 10507 10506 10506 10505 10505 10505 10504 10504 10504 10505 10505 10505 10505 10505 10505 10505 10505 10505 10506 10506 10506 10506 10506 10506 10506 10505 10505 10505 10504 10504 10503 10503 10502 10501 10501 10500 10499 10498 10497 10496 10495 10494 10493 10492 10492
10542 10541 10540 10538 10537 10535 10533 10529 10526 10523 10520 10517 10514 10512 10511 10509 10508 10507 10507 10506 10505 10505 10504 10504 10504 10504 10504 10504 10504 10504 10504 10504 10504 10504 10505 10505 10506 10506 10506 10506 10506 10505 10505 10505 10505 10504 10504 10504 10503 10502 10502 10501 10500 10499 10499 10498 10497 10496 10495 10494 10493 10492 10491
10539 10538 10538 10537 10535 10534 10532 10529 10526 10523 10521 10518 10515 10513 10511 10509 10508 10507 10506 10506 10505 10504 10504 10504 10503 10503 10504 10504 10503 10503 10503 10503 10504 10504 10505 10505 10506 10506 10506 10505 10505 10505 10505 10505 10505 10504 10504 10503 10503 10502 10502 10501 10500 10499 10498 10497 10496 10495 10494 10493 10492 10491 10489
10537 10536 10535 10535 10533 10532 10531 10529 10526 10524 10521 10519 10516 10514 10512 10510 10508 10507 10507 10506 10505 10504 10504 10503 10503 10504 10504 10503 10503 10503 10503 10504 10504 10505 10505 10505 10506 10506 10505 10505 10505 10505 10505 10505 10505 10504 10504 10503 10503 10502 10502 10501 10500 10499 10498 10497 10496 10494 10493 10492 10491 10489 10488
10534 10534 10533 10533 10532 10531 10530 10528 10526 10524 10522 10520 10517 10515 10513 10511 10509 10508 10507 10506 10505 10504 10504 10504 10504 10504 10504 10503 10503 10504 10504 10505 10505 10505 10506 10506 10506 10506 10506 10506 10506 10506 10505 10505 10504 10504 10503 10503 10502 10502 10501 10500 10499 10498 10497 10496 10494 10493 10491 10490 10489 10488 10487
10532 10532 10531 10530 10530 10529 10528 10527 10526 10524 10522 10520 10518 10516 10514 10512 10510 10509 10508 10507 10505 10504 10504 10504 10504 10504 10503 10504 10504 10505 10506 10506 10506 10506 10506 10506 10506 10506 10506 10506 10506 10505 10505 10504 10504 10503 10503 10502 10501 10501 10500 10499 10498 10496 10495 10494 10492 10491 10489 10488 10487 10485 10484
10530 10530 10529 10528 10528 10527 10527 10526 10525 10523 10522 10520 10519 10517 10515 10513 10512 10510 10509 10507 10506 10506 10505 10505 10505 10504 10504 10505 10506 10506 10506 10506 10506 10506 10506 10506 10506 10506 10506 10505 10505 10505 10504 10504 10503 10502 10502 10501 10500 10499 10498 10497 10496 10494 10493 10492 10490 10489 10487 10486 10484 10483 10482
10529 10528 10527 10527 10526 10525 10525 10524 10523 10522 10521 10520 10518 10517 10516 10514 10513 10511 10510 10509 10508 10507 10506 10506 10505 10505 10505 10506 10507 10507 10507 10507 10507 10507 10506 10506 10506 10506 10505 10505 10505 10504 10504 10503 10502 10501 10501 10500 10499 10498 10497 10495 10494 10493 10491 10490 10488 10486 10485 10483 10482 10480 10479
10529 10527 10526 10525 10525 10524 10523 10523 10522 10521 10520 10519 10518 10517 10516 10514 10513 10512 10511 10511 10510 10509 10507 10506 10506 10506 10507 10507 10507 10508 10507 10507 10507 10507 10506 10506 10506 10506 10505 10505 10504 10504 10503 10502 10501 10501 10500 10499 10498 10497 10495 10494 10493 10491 10490 10488 10486 10485 10483 10481 10480 10478 10477
10529 10527 10526 10524 10524 10523 10522 10521 10520 10519 10519 10518 10517 10516 10515 10514 10513 10512 10512 10511 10511 10510 10509 10508 10507 10507 10507 10507 10508 10508 10507 10507 10507 10507 10506 10506 10506 10506 10505 10504 10504 10503 10502 10502 10501 10500 10499 10498 10497 10496 10494 10493 10491 10490 10488 10486 10485 10483 10481 10480 10478 10476 10474